Preview of NWS' New Version of Forecast
This preview is not operational and should not be used for support decisions.

Regional Weather Roundup (RWR)

Issued by Gray - Portland, ME (GYX)

                            
000
ASUS41 KGYX 232205
RWRGYX
WEATHER ROUNDUP FOR MAINE AND NEW HAMPSHIRE
NATIONAL WEATHER SERVICE GRAY ME
600 PM EDT THU MAY 23 2019

MEZ002-005-006-010-012-015-018-020-021-024-026-027-029-232300-
MAINE
  
CITY           SKY/WX    TMP DP  RH WIND       PRES   REMARKS
PORTLAND       CLOUDY    58  47  66 S8        29.92F                  
SANFORD        LGT RAIN  63  54  72 SE3       29.90F                  
BAR HARBOR     FAIR      53  45  74 S8        30.01F                  
WISCASSET      PTSUNNY   54  47  77 S5        29.97F                  
ROCKLAND       FAIR      51  47  86 S8        29.98F                  
FRYEBURG       LGT RAIN  64  51  62 E8        29.89F                  
LEWISTONAUBURN CLOUDY    58  50  75 SE8       29.92F                  
AUGUSTA        PTSUNNY   58  48  69 S6        29.95F                  
WATERVILLE     FAIR      58  47  66 CALM      29.91F                  
BANGOR         CLOUDY    56  46  69 S15       29.97F                  
GREENVILLE       N/A     60  39  45 SE10G18   29.90F                  
MILLINOCKET    CLOUDY    64  40  41 VRB7      29.94F                  
HOULTON        PTSUNNY   63  38  39 SE6       29.92F                  
PRESQUE ISLE   CLOUDY    63  40  42 SE10      29.92F                  
FRENCHVILLE    CLOUDY    64  37  36 SE8       29.91F                  
CARIBOU        CLOUDY    64  40  41 SE9       29.90F                  
$$

NHZ002-005-008-009-011-012-014-232300-
NEW HAMPSHIRE
  
CITY           SKY/WX    TMP DP  RH WIND       PRES   REMARKS
PORTSMOUTH     LGT RAIN  65  48  53 S9        29.89F                  
ROCHESTER      LGT RAIN  65  55  70 S3        29.89F                  
NASHUA         CLOUDY    66  51  58 VRB5      29.91F                  
MANCHESTER     CLOUDY    68  48  48 S13       29.88F                  
CONCORD        LGT RAIN  64  59  83 CALM      29.88F                  
LACONIA        LGT RAIN  64  58  80 S6        29.88F                  
PLYMOUTH       LGT RAIN  62  57  83 CALM      29.86F                  
BERLIN         NOT AVBL                                               
WHITEFIELD     CLOUDY    65  49  56 S7G17     29.84F                  
JAFFREY        PTSUNNY   62  50  64 SW8       29.92F                  
KEENE          CLOUDY    62  52  69 S12G20    29.88F                  
LEBANON        LGT RAIN  64  58  80 SW8       29.84F                  
MT WASHINGTON  LGT RAIN  41  41 100 S20         N/A  VSB 0            
$$

VTZ005-007-008-232300-
VERMONT
  
CITY           SKY/WX    TMP DP  RH WIND       PRES   REMARKS
ST JOHNSBURY     N/A     67  52  58 MISG      29.80F                  
MONTPELIER     LGT RAIN  61  57  87 S10       29.85F                  
BURLINGTON     LGT RAIN  63  32  31 S14G26    29.77F                  
$$

MAZ007-012-024-CTZ003-RIZ002-NYZ038-NYZ072-232300-
SOUTHERN NEW ENGLAND AND NY
  
CITY           SKY/WX    TMP DP  RH WIND       PRES   REMARKS
WORCESTER      CLOUDY    57  54  89 S8        29.94F                  
NANTUCKET      CLOUDY    55  50  83 S13       30.05F                  
PROVIDENCE     CLOUDY    62  54  74 S13       29.97F                  
HARTFORD       PTSUNNY   66  53  63 S15       29.89F                  
ALBANY         LGT RAIN  68  56  65 S13       29.84F                  
NEW YORK CITY  CLOUDY    70  62  76 S10       29.92F                  
$$

ANZ081-ANZ082-ANZ150-NHZ014-MEZ023>029-232300-
COASTAL MARINE OBSERVATIONS
  
STATION/POSITION TIME  TEMP    WIND        PRES    WAVE
                       AIR SEA DIR/SP/G            HT/PER
                 (UTC) (F)     (DEG/KT/KT) (MB)    (FT/S)
ISLE OF SHOALS   2100   59     180/ 24/ 26 1014.0F
JEFFREYS LEDGE   2138      47                N/A     3/ 5
GEORGES BANK BUO 2150   49 47  210/  8/  8 1022.2F   3/ 8
$$

.............KEY..............
   WCI - WIND CHILL
   TC  - TEMPERATURE IN CELSIUS
   VSB - VISIBILITY IN MILES
   HX  - HEAT INDEX
   FAIR- INDICATES FEW OR NO CLOUDS BELOW 12,000 FT, WITH NO 
         SIGNIFICANT WEATHER AND/OR OBSTRUCTIONS TO VISIBILITY.